Location: Bottens
(46.6171°N, 6.6605°E)
Time: 20:12:09
(UTC+00:00)

NOSS 2-3 (E) - Pass Details

Date: 20 June 2021
Orbit: 555 x 1655 km, 63.4° (Epoch: 23 July)

Event Time Altitude Azimuth Distance (km) Brightness Sun altitude
Exits shadow 00:42:31 21° 254° (WSW) 1,356 5.0 -18.3°
Maximum altitude 00:45:02 45° 318° (NW) 867 4.5 -18.2°
Drops below altitude 10° 00:49:50 10° 32° (NNE) 2,258 7.6 -17.9°
Sets 00:52:36 0° 38° (NE) 3,349 8.7 -17.8°
